Regional Weather Roundup
Issued by NWS Spokane, WA

Home | Current Version | Previous Version | Text Only | Print | Product List | Glossary On
Versions: 1 2 3 4 5 6 7 8 9 10 11 12 13 14 15 16 17 18 19 20 21 22 23 24 25 26 27 28 29 30 31 32 33 34 35 36 37 38 39 40 41 42 43 44 45 46 47 48 49 50
000
NZUS01 KOTX 272310
RWROTX
EASTERN WASHINGTON/NORTHERN IDAHO ROUNDUP
NATIONAL WEATHER SERVICE, SPOKANE WA
400 PM PDT WED AUG 27 2014

Note: "fair" indicated few or no clouds below 12,000 feet with no
significant weather and/or obstructions to visibility.

...NORTHEAST WASHINGTON AND NORTHERN IDAHO PANHANDLE...

CITY           SKY/WX    TMP DP  RH WIND       PRES   REMARKS
SPOKANE INTL   MOSUNNY   88  44  21 W10       29.99F
SPOKANE DOWNTO SUNNY     90  44  20 CALM      29.97F
COEUR D ALENE  SUNNY     88  43  20 W9        29.97F
DEER PARK      SUNNY     89  43  20 S12       29.98F
SANDPOINT      SUNNY     82  50  32 E7        29.99F

...SOUTHEAST WASHINGTON AND SOUTHERN IDAHO PANHANDLE...

CITY           SKY/WX    TMP DP  RH WIND       PRES   REMARKS
WALLA WALLA    SUNNY     94  47  20 SW9       29.95F HX  90
PULLMAN/MOSCOW SUNNY     86  43  22 W6        30.04F
LEWISTON       SUNNY     93  44  18 CALM      29.95F
LOWELL           N/A     89  50  26 NW5       29.94F

...COLUMBIA BASIN...

CITY           SKY/WX    TMP DP  RH WIND       PRES   REMARKS
EPHRATA        SUNNY     92  53  26 S14       29.90F
MOSES LAKE     SUNNY     94  50  22 S14       29.92F HX  91
TRI CITIES     SUNNY     98  51  20 S7        29.87F HX  95
HERMISTON      SUNNY     97  48  18 NW9       29.89F HX  93
PENDLETON      SUNNY     93  46  19 W6        29.94F

...EAST SLOPES CASCADES...

CITY           SKY/WX    TMP DP  RH WIND       PRES   REMARKS
THE DALLES     SUNNY     96  52  22 NW12G23   29.89F HX  93
YAKIMA         MOSUNNY   94  54  25 CALM      29.90F HX  92
ELLENSBURG     SUNNY     93  56  28 NW17      29.95S HX  91
WENATCHEE      SUNNY     94  50  22 VRB3      29.89F HX  91
OMAK           SUNNY     94  50  22 SW12      29.88F HX  91

...SOUTHERN BRITISH COLUMBIA...

CITY           SKY/WX    TMP DP  RH WIND       PRES   REMARKS
PENTICTON      MOSUNNY   90  55  31 S9G17     29.84F
CASTLEGAR      MOSUNNY   90  55  31 S12       29.91F
CRANBROOK      PTSUNNY   84  50  30 W8        29.97F

...WESTERN MONTANA...

CITY           SKY/WX    TMP DP  RH WIND       PRES   REMARKS
MISSOULA       SUNNY     84  46  26 CALM      30.04F

...NEIGHBORING CITIES...

CITY           SKY/WX    TMP DP  RH WIND       PRES   REMARKS
SEATTLE        MOSUNNY   83  56  39 W6        30.03F
CALGARY        PTSUNNY   82  34  17 SW16      29.91F



USA.gov is the U.S. government's official web portal to all federal, state and local government web resources and services.